STARLINK-34761

Last updated on Tue Aug 26 2025 00:02:06 GMT+0000 (Coordinated Universal Time)

1 64954U 25158Y 25237.61424521 .00028675 00000+0 73401-3 0 9998 2 64954 97.6012 100.2158 0002257 79.3543 280.7956 15.39370541 5818

Satellite not in orbit

STARLINK-34761